MNO442 FABL-FVFA

Flight info

Callsign MNO442
Flight time N/A
Altitude 33000
Route OKTIG1B OKTIG UZ4 TEVAR DCT GAV UA405 UTRUK UB540 ETMIT/N0470F340 UN309 BONAL UM309 VFA
Aircraft B738/M-SDE2E3FGHIRWXY/LB1

Departure

Time 2026-05-05 12:00
Airport Bram Fischer International Airport (FABL)

Arrival

Time N/A
Airport Victoria Falls International Airport (FVFA)
Time Latitude Longitude Altitude Speed Heading
2026-05-05 11:53 -29.10266 26.30627 4422 ft 0 kts 271°
2026-05-05 11:56 -29.10261 26.30622 4422 ft 3 kts 317°
2026-05-05 11:56 -29.10218 26.30597 4422 ft 9 kts 341°
2026-05-05 11:57 -29.10189 26.30540 4422 ft 9 kts 275°
2026-05-05 11:57 -29.10189 26.30471 4422 ft 9 kts 270°
2026-05-05 11:57 -29.10206 26.30433 4424 ft 8 kts 212°
2026-05-05 11:57 -29.10263 26.30425 4422 ft 9 kts 181°
2026-05-05 11:58 -29.10333 26.30423 4422 ft 10 kts 181°
2026-05-05 11:58 -29.10406 26.30425 4422 ft 11 kts 184°
2026-05-05 11:58 -29.10476 26.30379 4422 ft 13 kts 231°
2026-05-05 11:58 -29.10496 26.30282 4423 ft 13 kts 270°
2026-05-05 11:59 -29.10454 26.30230 4424 ft 10 kts 353°
2026-05-05 11:59 -29.10297 26.30234 4426 ft 51 kts 360°
2026-05-05 11:59 -29.09706 26.30240 4421 ft 117 kts 359°
2026-05-05 11:59 -29.08700 26.30254 4447 ft 168 kts 359°
2026-05-05 12:00 -29.07498 26.30322 4997 ft 175 kts 355°
2026-05-05 12:00 -29.06277 26.30316 5807 ft 171 kts 355°
2026-05-05 12:00 -29.05136 26.30332 6694 ft 163 kts 358°
2026-05-05 12:00 -29.03884 26.30363 6832 ft 197 kts 358°
2026-05-05 12:01 -29.02497 26.30403 7300 ft 202 kts 358°
2026-05-05 12:01 -29.01078 26.30520 7817 ft 209 kts
2026-05-05 12:01 -28.99646 26.31118 8031 ft 235 kts 20°
2026-05-05 12:01 -28.98233 26.32175 8499 ft 249 kts 35°
2026-05-05 12:02 -28.96864 26.33514 8880 ft 271 kts 34°
2026-05-05 12:02 -28.95355 26.34891 9464 ft 282 kts 33°
2026-05-05 12:02 -28.93795 26.36289 10216 ft 287 kts 32°
2026-05-05 12:02 -28.92160 26.37746 10488 ft 311 kts 32°
2026-05-05 12:03 -28.90389 26.39324 10672 ft 335 kts 32°
2026-05-05 12:03 -28.88498 26.41017 10913 ft 354 kts 33°
2026-05-05 12:03 -28.86535 26.42788 11455 ft 362 kts 33°
2026-05-05 12:03 -28.84554 26.44585 12208 ft 364 kts 32°
2026-05-05 12:04 -28.82596 26.46362 12949 ft 366 kts 32°
2026-05-05 12:04 -28.80592 26.48177 13652 ft 369 kts 31°
2026-05-05 12:04 -28.78572 26.50006 14295 ft 371 kts 31°
2026-05-05 12:04 -28.76546 26.51838 14981 ft 372 kts 31°
2026-05-05 12:05 -28.74508 26.53679 15594 ft 375 kts 31°
2026-05-05 12:05 -28.72449 26.55535 16162 ft 380 kts 31°
2026-05-05 12:05 -28.70372 26.57408 16782 ft 381 kts 30°
2026-05-05 12:05 -28.68290 26.59286 17425 ft 383 kts 30°
2026-05-05 12:06 -28.66197 26.61172 18039 ft 385 kts 30°
2026-05-05 12:06 -28.64094 26.63064 18575 ft 387 kts 30°
2026-05-05 12:06 -28.61971 26.64975 19073 ft 389 kts 30°
2026-05-05 12:06 -28.59870 26.66865 19558 ft 391 kts 30°
2026-05-05 12:07 -28.57721 26.68797 20048 ft 394 kts 30°
2026-05-05 12:07 -28.55558 26.70741 20539 ft 396 kts 30°
2026-05-05 12:07 -28.53386 26.72693 21008 ft 399 kts 30°
2026-05-05 12:07 -28.51202 26.74654 21478 ft 401 kts 29°
2026-05-05 12:08 -28.49009 26.76621 21947 ft 403 kts 29°
2026-05-05 12:08 -28.46781 26.78583 22392 ft 404 kts 27°
2026-05-05 12:08 -28.44489 26.80422 22823 ft 404 kts 25°
2026-05-05 12:08 -28.42151 26.82207 23251 ft 405 kts 25°
2026-05-05 12:09 -28.39794 26.83985 23627 ft 408 kts 25°
2026-05-05 12:09 -28.37458 26.85752 23943 ft 410 kts 25°
2026-05-05 12:09 -28.35081 26.87561 24228 ft 413 kts 25°
2026-05-05 12:09 -28.32671 26.89403 24348 ft 422 kts 25°
2026-05-05 12:10 -28.31025 26.90666 24510 ft 424 kts 25°
2026-05-05 12:10 -28.27785 26.93165 24998 ft 425 kts 25°
2026-05-05 12:10 -28.25342 26.95052 25354 ft 426 kts 25°
2026-05-05 12:10 -28.22883 26.96947 25643 ft 429 kts 25°
2026-05-05 12:11 -28.20406 26.98855 25926 ft 431 kts 25°
2026-05-05 12:11 -28.17921 27.00767 26224 ft 433 kts 25°
2026-05-05 12:11 -28.15418 27.02692 26521 ft 435 kts 25°
2026-05-05 12:11 -28.12902 27.04626 26809 ft 437 kts 25°
2026-05-05 12:12 -28.10380 27.06565 27060 ft 440 kts 25°
2026-05-05 12:12 -28.07838 27.08517 27309 ft 442 kts 24°
2026-05-05 12:12 -28.05283 27.10477 27577 ft 444 kts 24°
2026-05-05 12:12 -28.02708 27.12402 27835 ft 441 kts 20°
2026-05-05 12:13 -27.99982 27.13917 28085 ft 433 kts 13°
2026-05-05 12:13 -27.97192 27.14994 28352 ft 426 kts
2026-05-05 12:13 -27.92663 27.15964 28765 ft 422 kts
2026-05-05 12:13 -27.86934 27.17118 29538 ft 420 kts
2026-05-05 12:14 -27.81108 27.18315 29874 ft 427 kts
2026-05-05 12:14 -27.75194 27.19542 30181 ft 434 kts
2026-05-05 12:14 -27.69311 27.20779 31003 ft 426 kts
2026-05-05 12:14 -27.63494 27.21997 31680 ft 424 kts
2026-05-05 12:15 -27.57687 27.23205 32320 ft 423 kts
2026-05-05 12:15 -27.51925 27.24406 33073 ft 417 kts
2026-05-05 12:15 -27.46275 27.25583 33943 ft 410 kts
2026-05-05 12:15 -27.40651 27.26747 34432 ft 410 kts
2026-05-05 12:16 -27.35062 27.27907 35031 ft 406 kts
2026-05-05 12:16 -27.29853 27.28985 35489 ft 405 kts
2026-05-05 12:16 -27.27125 27.29550 35758 ft 403 kts
2026-05-05 12:16 -27.24370 27.30121 36065 ft 401 kts
2026-05-05 12:17 -27.21641 27.30744 36357 ft 404 kts
2026-05-05 12:17 -27.18936 27.31727 36564 ft 415 kts 11°
2026-05-05 12:17 -27.16293 27.33114 36748 ft 421 kts 13°
2026-05-05 12:17 -27.13660 27.34545 36938 ft 421 kts 13°
2026-05-05 12:18 -27.03489 27.40022 36950 ft 427 kts 13°
2026-05-05 12:18 -26.92813 27.45718 36920 ft 421 kts 13°
2026-05-05 12:19 -26.82347 27.51281 36947 ft 412 kts 13°
2026-05-05 12:19 -26.75421 27.54949 36963 ft 412 kts 12°